Observations for Trim Patrick St
| Time | AQI | Temp °C | Hum % | Pres Pa | CO μg/m³ | H₂S μg/m³ | NO μg/m³ | NO₂ μg/m³ | O₃ μg/m³ | SO₂ μg/m³ | PM1 μg/m³ | PM2.5 μg/m³ | PM10 μg/m³ |
|---|---|---|---|---|---|---|---|---|---|---|---|---|---|
| Thursday 27 August 2026 | |||||||||||||
| 10:00 | 2 | 20.1 | 78 | 38,460 | 0.07 | 0.29 | 1.36 | 22.74 | 47.44 | 0 | 22.57 | 32.89 | 35.72 |
| 09:59 | 2 | 20 | 78 | 38,460 | 0.1 | 0 | 1.59 | 17.2 | 34.2 | 0.25 | 21.72 | 31.44 | 32.08 |
| 09:58 | 2 | 20 | 78 | 38,460 | 0.12 | 0 | 1.46 | 13.15 | 37.25 | 0.93 | 21.72 | 30.69 | 31.98 |
| 09:57 | 2 | 20 | 78 | 38,460 | 0.05 | 0 | 2.3 | 15 | 38.51 | 0.81 | 21.72 | 30.69 | 33.39 |
| 09:56 | 2 | 20.1 | 78 | 38,460 | 0.05 | 0 | 2.68 | 22.33 | 24.4 | 3.18 | 22.57 | 32.08 | 36.18 |
| 09:55 | 2 | 20.1 | 78 | 38,460 | 0.03 | 0 | 1.75 | 15.09 | 35.72 | 0 | 21.72 | 30.7 | 31.31 |
| 09:54 | 2 | 20.1 | 78 | 38,460 | 0.05 | 0 | 1.37 | 15.61 | 40.23 | 0.07 | 21.72 | 30.7 | 32.72 |
| 09:53 | 2 | 20.1 | 78 | 38,460 | 0.13 | 0.71 | 1.55 | 20.65 | 27.03 | 1.54 | 22.57 | 32.1 | 36.92 |
| 09:52 | 2 | 20.1 | 78 | 38,460 | 0.09 | 0 | 0.98 | 17.8 | 30.56 | 0.85 | 22.57 | 32.13 | 34.87 |
| 09:51 | 2 | 20.1 | 78 | 38,460 | 0.04 | 0 | 1.07 | 16.09 | 44.53 | 0 | 21.72 | 32.88 | 36.39 |
| 09:50 | 2 | 20.1 | 78 | 38,460 | 0.05 | 0 | 1.17 | 12.48 | 38.75 | 0.22 | 20.86 | 29.31 | 29.92 |
| 09:49 | 2 | 20.1 | 78 | 38,460 | 0.06 | 0 | 1.61 | 11.9 | 39.11 | 1.04 | 20 | 27.9 | 30.69 |
| 09:48 | 2 | 20.1 | 78 | 38,460 | 0.05 | 0 | 1.57 | 9.57 | 41.25 | 0.79 | 20 | 28.59 | 31.45 |
| 09:47 | 2 | 20.1 | 78 | 38,460 | 0.05 | 0 | 1.8 | 17.38 | 37.2 | 0.12 | 22.57 | 31.41 | 33.43 |
| 09:45 | 2 | 20.1 | 78 | 38,460 | 0.07 | 0 | 1.55 | 12.3 | 38.48 | 0.33 | 22.57 | 33.57 | 37.07 |
| 09:44 | 2 | 20.1 | 78 | 38,460 | 0.05 | 0 | 1.13 | 11.33 | 38.28 | 0.62 | 22.57 | 32.11 | 33.43 |
| 09:43 | 2 | 20.1 | 78 | 38,460 | 0.07 | 0 | 1.4 | 11.8 | 40.27 | 1.06 | 21.72 | 32.11 | 33.43 |
| 09:42 | 2 | 20.1 | 78 | 38,460 | 0.05 | 0 | 1.49 | 8.8 | 37.52 | 1.69 | 22.57 | 32.1 | 33.39 |
| 09:41 | 2 | 20.1 | 78 | 38,460 | 0.06 | 0 | 1.76 | 30.28 | 32.58 | 0 | 21.72 | 32.86 | 34.94 |
| 09:38 | 2 | 20.1 | 78 | 38,460 | 0.06 | 0 | 1.87 | 10.97 | 39.39 | 0.44 | 23.43 | 33.49 | 36.18 |